Regional Weather Roundup
Issued by NWS

Home | Current Version | Previous Version | Text Only | Print | Product List | Glossary On
Versions: 1 2 3 4 5 6 7 8 9 10 11 12 13 14 15 16 17 18 19 20 21 22 23 24 25 26 27 28 29 30 31 32 33 34 35 36 37 38 39 40 41 42 43 44 45 46 47 48 49 50
000
ASUS44 KOUN 011100
RWROK

WEATHER ROUNDUP FOR OKLAHOMA
NATIONAL WEATHER SERVICE NORMAN OK
500 AM CST SUN MAR 01 2015

NOTE: "FAIR" INDICATES FEW OR NO CLOUDS BELOW 12,000 FEET WITH NO
      SIGNIFICANT WEATHER AND/OR OBSTRUCTIONS TO VISIBILITY.

OKZ001>007-009>012-014-015-017-011200-
NORTHWEST OKLAHOMA AND THE PANHANDLE

CITY           SKY/WX    TMP DP  RH WIND       PRES   REMARKS
GAGE           CLOUDY    23  21  92 CALM      30.22F
GUYMON         CLOUDY    27  23  85 CALM      30.14
$$

OKZ016-021>023-033>039-044-045-011200-
SOUTHWEST OKLAHOMA

CITY           SKY/WX    TMP DP  RH WIND       PRES   REMARKS
LAWTON/REGL    CLOUDY    29  26  89 N6        30.31S FOG     WCI  23
FREDERICK      CLOUDY    28  26  92 N5        30.28R FOG     WCI  23
CLINTON        CLOUDY    25  23  92 SW3       30.27F
HOBART         CLOUDY    26  25  96 NW3       30.29S FOG
ALTUS AFB      FRZ DRZL  27  27 100 NW6       30.29S WCI  20
$$

OKZ018>020-024>031-011200-
CENTRAL OKLAHOMA

CITY           SKY/WX    TMP DP  RH WIND       PRES   REMARKS
OKLAHOMA CITY  FRZ DRZL  29  25  85 CALM      30.30F FOG
OKC/WILEY POST CLOUDY    28  26  92 CALM      30.32S FOG
STILLWATER     CLOUDY    27  25  92 N3        30.33R FOG
GUTHRIE        CLOUDY    26  25  96 CALM      30.33S FOG
$$

OKZ008-013-054>072-011200-
NORTHEAST OKLAHOMA

CITY           SKY/WX    TMP DP  RH WIND       PRES   REMARKS
TULSA          CLOUDY    28  27  96 N6        30.36R FOG     WCI  22
TULSA/JONES    CLOUDY    28  26  92 CALM      30.36S
PONCA CITY     FOG       26  24  92 CALM      30.34S VSB 1
BARTLESVILLE   CLOUDY    26  25  96 CALM      30.39R FOG
MUSKOGEE       CLOUDY    31  29  92 N5        30.37R FOG     WCI  26
$$

OKZ032-040>043-046>053-073>077-011200-
SOUTH CENTRAL/SOUTHEAST OKLAHOMA

CITY           SKY/WX    TMP DP  RH WIND       PRES   REMARKS
MCALESTER      CLOUDY    32  30  92 N5        30.33S FOG     WCI  27
$$



USA.gov is the U.S. government's official web portal to all federal, state and local government web resources and services.